Home   Weather   Dayton   Past weeks
Flag for USA

Past Weather in Dayton, Ohio, USA — Yesterday and Last 2 Weeks

Now
61 °F

Clear.


Feels Like: 61 °F
Forecast: 85 / 60 °F
Wind: 3 mph from North

Location: Dayton / Wright-Patterson Air Force Base

Current Time: Sep 18, 2019 at 7:38:54 am

Latest Report: Sep 18, 2019 at 5:56 am


Visibility: 10 mi

Pressure: 30.11 "Hg

Humidity: 90%

Dew Point: 58 °F

Location of DaytonLocation

Past Weather in Dayton — Graph

°F

Dayton Temperature Yesterday

Maximum temperature yesterday: 84 °F (at 5:04 pm)
Minimum temperature yesterday: 64 °F (at 6:56 am)
Average temperature yesterday: 74 °F

High & Low Weather Summary for the Past Weeks

 TemperatureHumidityPressure
High94 °F (Sep 13, 2:56 pm)100% (Sep 3, 6:56 am)30.28 "Hg (Sep 3, 6:56 am)
Low51 °F (Sep 6, 5:56 am)30% (Sep 15, 3:56 pm)29.86 "Hg (Sep 6, 4:56 pm)
Average73 °F68%30.09 "Hg
* Reported Sep 3 6:56 am — Sep 18 5:56 am, Dayton. Weather by CustomWeather, © 2019

Note: Actual official high and low records may vary slightly from our data, if they occured in-between our weather recording intervals... More about our weather records

Advertising

Dayton Weather History for the Previous 24 Hours

Scroll right to see more
 ConditionsComfort  
Time TempWeatherWind HumidityBarometerVisibility
5:56 am
Wed, Sep 18
61 °FClear.3 mph90%30.11 "Hg10 mi
4:56 am63 °FClear.5 mph89%30.11 "Hg10 mi
3:56 am63 °FFog.3 mph89%30.11 "Hg6 mi
11:56 pm
Tue, Sep 17
66 °FClear.8 mph84%30.12 "Hg10 mi
10:56 pm68 °FClear.9 mph78%30.11 "Hg10 mi
9:56 pm71 °FClear.10 mph68%30.11 "Hg10 mi
8:56 pm71 °FClear.7 mph66%30.10 "Hg10 mi
7:56 pm76 °FClear.9 mph55%30.08 "Hg10 mi
6:56 pm81 °FSunny.10 mph47%30.07 "Hg10 mi
6:12 pm82 °FPartly sunny.12 mph42%30.08 "Hg10 mi
5:56 pm84 °FScattered clouds.10 mph40%30.08 "Hg10 mi
5:04 pm84 °FSunny.14 mph40%30.07 "Hg10 mi
4:56 pm84 °FSunny.9 mph40%30.07 "Hg10 mi
3:56 pm84 °FPassing clouds.9 mph41%30.08 "Hg10 mi
2:56 pm84 °FPassing clouds.9 mph41%30.10 "Hg10 mi
1:56 pm82 °FPassing clouds.12 mph45%30.12 "Hg10 mi
12:56 pm82 °FScattered clouds.10 mph47%30.13 "Hg10 mi
10:56 am75 °FSunny.9 mph64%30.15 "Hg10 mi
9:56 am71 °FSunny.9 mph73%30.14 "Hg10 mi
7:56 am64 °FSunny.6 mph89%30.14 "Hg10 mi
Weather by CustomWeather, © 2019

See weather overview